Flag for Germany Weather past 2 weeks in Prenzlau, Brandenburg, Germany

Now
66 °F

Passing clouds.


Feels Like: 66 °F
Forecast: 64 / 91 °F
Wind: 6 mph from Northeast

Location: Szczecin Airport

Current Time: Aug 3, 2015 at 9:43:13 AM

Latest Report: Aug 3, 2015 at 9:00 AM


Visibility: N/A

Pressure: 30.12 "Hg

Humidity: 68%

Dew point: 55 °F

Location of PrenzlauLocation

Historic Weather in Prenzlau — Graph

°F

Prenzlau temperature yesterday

Maximum temperature yesterday: 82 °F (at 3:00 PM)
Minimum temperature yesterday: 54 °F (at 2:00 AM)
Average temperature yesterday: 69 °F

Past Weeks' High & Low Weather Summary

 TemperatureHumidityPressure
High82 °F (Aug 2, 3:00 PM)100% (Jul 19, 2:00 PM)30.12 "Hg (Jul 19, 2:00 PM)
Low41 °F (Aug 1, 5:30 AM)30% (Aug 2, 3:00 PM)29.50 "Hg (Jul 25, 5:30 PM)
Average62 °F73%29.84 "Hg
* Reported Jul 19 8:00 AM — Aug 3 8:30 AM, Prenzlau, Weather by CustomWeather, © 2015

Note: Actual official high and low records may vary slightly from our data, if they occured in-between our weather recording intervals... More about our weather records

Advertising

Prenzlau weather history for previous 24 hours

 ConditionsComfort  
Time TempWeatherWind HumidityBarometerVisibility
8:30 AM
Mon, Aug 3
64 °FPassing clouds.6 mph78%30.12 "HgN/A
8:00 AM63 °FPassing clouds.6 mph83%30.12 "HgN/A
7:30 AM61 °FPassing clouds.3 mph83%30.12 "HgN/A
7:00 AM57 °FSunny.3 mph88%30.12 "Hg10 mi
6:30 AM55 °FSunny.3 mph94%30.12 "Hg10 mi
6:00 AM55 °FClear.3 mph94%30.12 "Hg10 mi
5:30 AM55 °FClear.No wind94%30.12 "Hg10 mi
5:00 AM55 °FClear.3 mph94%30.12 "Hg10 mi
4:30 AM55 °FClear.3 mph94%30.12 "Hg10 mi
4:00 AM54 °FClear.No wind94%30.12 "Hg10 mi
3:30 AM55 °FClear.No wind94%30.12 "Hg10 mi
3:00 AM59 °FClear.3 mph82%30.12 "Hg10 mi
2:30 AM55 °FClear.3 mph94%30.12 "Hg10 mi
2:00 AM61 °FClear.3 mph77%30.12 "Hg10 mi
1:30 AM59 °FClear.3 mph82%30.12 "Hg10 mi
1:00 AM59 °FClear.2 mph82%30.12 "Hg10 mi
12:30 AM59 °FClear.6 mph82%30.12 "Hg10 mi
12:00 AM63 °FClear.3 mph73%30.12 "Hg10 mi
11:30 PM
Sun, Aug 2
63 °FClear.3 mph73%30.12 "Hg10 mi
11:00 PM63 °FClear.3 mph77%30.12 "Hg10 mi
10:30 PM64 °FClear.5 mph73%30.12 "Hg10 mi
10:00 PM66 °FClear.6 mph68%30.12 "Hg10 mi
9:30 PM68 °FSunny.8 mph64%30.09 "Hg10 mi
9:00 PM75 °FSunny.7 mph47%30.07 "Hg10 mi
8:30 PM75 °FSunny.5 mph47%30.07 "Hg10 mi
8:00 PM77 °FSunny.3 mph47%30.07 "Hg10 mi
7:30 PM79 °FSunny.3 mph39%30.07 "Hg10 mi
7:00 PM81 °FSunny.3 mph34%30.07 "Hg10 mi
6:30 PM81 °FPassing clouds.3 mph32%30.07 "HgN/A
6:00 PM81 °FPassing clouds.3 mph32%30.07 "HgN/A
5:30 PM81 °FSunny.6 mph32%30.07 "Hg10 mi
5:00 PM81 °FSunny.6 mph34%30.09 "Hg10 mi
4:30 PM81 °FSunny.5 mph37%30.09 "Hg10 mi
4:00 PM82 °FSunny.3 mph35%30.09 "Hg10 mi
3:30 PM82 °FPassing clouds.7 mph35%30.09 "HgN/A
3:00 PM82 °FPassing clouds.2 mph30%30.09 "HgN/A
2:30 PM81 °FPassing clouds.7 mph32%30.09 "HgN/A
2:00 PM81 °FPassing clouds.6 mph32%30.09 "HgN/A
1:30 PM81 °FSunny.2 mph37%30.09 "Hg10 mi
1:00 PM79 °FSunny.3 mph42%30.09 "Hg10 mi
12:30 PM77 °FSunny.3 mph39%30.09 "Hg10 mi
12:00 PM77 °FPassing clouds.5 mph39%30.09 "HgN/A
11:30 AM75 °FSunny.2 mph47%30.09 "Hg10 mi
11:00 AM75 °FSunny.2 mph50%30.09 "Hg10 mi
10:30 AM73 °FSunny.2 mph50%30.09 "Hg10 mi
10:00 AM72 °FSunny.No wind50%30.09 "Hg10 mi
9:30 AM68 °FSunny.3 mph56%30.09 "Hg10 mi
9:00 AM68 °FSunny.5 mph53%30.09 "Hg10 mi
Weather by CustomWeather, © 2015

See weather overviewHow to use our weather pages